カタログに戻る

STARLINK-3641

運用中通信VLEO
NORAD 51788·PAYLOAD·🇺🇸 United States

打ち上げ Feb 25, 2022 から Vandenberg Space Force Base

Loading…

次のパス (今後24時間)

TLE

最新Source: CelesTrak SupGP

元期: Sep 14, 2026, 14:32 UTC

1 51788C 22017W   26257.60604167 -.00008117  00000+0 -23985-3 0  2578
2 51788  53.1568 206.9261 0001224  92.9580 227.9169 15.34390190    19

AllMySatでSTARLINK-3641をリアルタイム追跡

Download on the App Store